Wind_Speed
36 36 36 37 38 37 37 37 38 37 37 38 37 38 39 40 40 40 40 40 41 42 42 43 44 44 45 46 47 47 49 49 49 47 47 46 46 47 47 48 49 49 47
35 35 35 35 35 35 35 36 37 36 36 36 36 37 39 40 40 40 39 40 40 41 41 42 42 42 43 43 45 46 46 46 46 46 45 44 43 44 45 47 47 48 48
33 33 33 34 34 33 34 35 35 35 34 34 34 36 38 39 39 39 39 39 40 40 41 41 40 40 41 42 43 43 43 44 44 44 44 44 43 43 43 44 44 46 47
33 32 32 32 32 33 33 33 33 33 33 33 33 34 35 37 37 38 38 38 39 39 40 40 40 40 40 41 41 41 42 42 43 44 43 42 42 42 43 42 42 42 44
32 32 31 31 31 31 31 31 31 31 32 31 32 32 33 34 35 36 36 37 38 38 38 39 39 40 39 39 40 40 40 41 42 42 42 42 41 41 42 41 41 40 41
31 30 30 30 30 30 30 30 30 29 30 30 31 31 32 33 33 34 35 36 36 36 36 36 37 38 38 38 37 37 38 39 40 40 40 40 40 40 40 41 40 40 39
29 29 29 29 29 29 29 29 29 29 29 30 31 31 32 31 31 32 33 34 34 35 35 35 35 35 36 35 35 35 35 36 37 38 38 38 38 39 39 39 37 36 36
28 28 28 28 29 29 29 29 29 29 29 30 30 30 30 31 32 32 32 32 33 33 34 34 34 34 33 33 33 34 34 34 33 34 34 34 35 36 36 36 35 34 33
27 28 28 29 29 29 28 27 28 29 29 29 29 30 30 31 31 32 32 32 32 32 32 32 32 32 31 32 32 32 32 31 31 31 30 30 31 31 32 32 32 32 31
27 27 28 28 28 28 28 27 29 29 29 29 30 29 29 29 30 31 31 32 31 31 30 29 30 30 30 31 30 30 30 29 30 29 29 29 28 28 29 29 29 30 30
26 27 27 27 27 27 28 28 28 28 29 28 29 28 27 27 28 28 29 29 28 27 27 27 27 28 29 29 29 29 28 28 27 27 27 27 27 27 27 27 27 27 27
25 25 26 27 27 27 27 27 28 28 28 27 27 27 26 26 26 25 26 26 26 26 26 27 27 28 27 27 27 27 27 26 25 25 24 24 24 25 26 26 26 26 26
24 24 25 26 26 26 26 26 27 27 26 26 25 25 24 24 23 24 24 24 23 24 25 26 26 26 26 26 25 26 26 26 25 24 23 23 23 23 24 24 25 25 25
24 24 24 25 24 24 24 24 23 23 24 23 23 23 22 22 22 22 22 22 23 22 22 22 23 23 23 23 23 23 23 23 23 22 22 22 22 22 22 22 23 23 22
23 22 22 22 21 20 19 19 19 20 21 21 20 20 19 19 20 20 20 21 22 21 21 20 21 21 21 21 21 22 21 20 20 20 20 21 21 21 21 21 21 21 21
20 19 18 18 18 17 16 16 17 17 18 17 17 17 17 18 18 19 19 20 20 20 19 19 19 19 19 18 19 19 19 19 19 18 19 19 18 19 19 20 20 20 19
17 17 16 15 15 14 14 15 15 15 15 15 16 16 16 16 17 18 18 18 18 18 17 18 17 17 17 17 17 17 17 17 16 16 16 16 16 16 17 18 18 18 17
14 14 14 14 13 13 13 14 14 13 14 14 15 15 15 15 14 14 15 16 15 15 15 16 16 15 15 16 16 15 14 14 13 14 14 14 14 14 15 15 16 16 16
13 13 13 13 13 13 14 14 14 14 14 13 14 14 14 14 13 13 13 13 13 13 13 13 13 13 14 14 13 12 11 11 10 10 11 11 11 11 12 13 14 14 14
12 12 12 12 13 13 13 13 13 12 12 12 12 13 12 12 12 12 12 12 12 12 12 12 11 11 11 10 10 9 8 8 9 9 9 9 9 10 10 11 11 12 12
12 12 13 13 12 12 13 13 12 12 11 11 12 11 11 11 11 10 10 11 11 11 10 9 9 8 8 7 7 7 7 7 8 8 8 8 8 9 9 9 9 10 10
12 12 13 12 12 12 12 12 12 11 11 11 10 9 9 9 9 9 9 10 10 10 9 9 8 8 8 8 7 7 7 7 7 7 7 7 7 8 8 8 8 9 9
11 12 12 12 12 12 12 11 11 10 10 10 9 8 8 8 8 8 9 9 8 8 7 7 7 7 7 7 7 7 6 6 6 6 6 6 6 6 7 7 8 8 8
11 11 11 11 11 11 10 10 10 10 9 9 8 8 8 8 8 7 7 7 7 6 6 6 6 6 6 6 6 6 5 5 5 4 4 4 4 4 5 5 6 7 7
11 11 10 10 10 10 9 9 9 9 9 9 8 8 8 7 6 6 6 6 6 5 5 5 5 5 5 4 5 5 4 4 4 4 4 3 3 4 5 5 5 5 5
11 11 11 11 10 10 9 9 9 8 8 7 7 7 7 6 6 7 7 7 6 5 5 5 5 4 4 4 3 3 3 3 3 3 3 3 4 4 4 4 4 5 4
Wind_Direction
273 275 274 273 272 271 269 269 269 269 268 267 265 264 264 263 263 265 266 266 267 268 269 270 272 271 271 271 270 269 268 269 269 268 267 267 267 265 265 264 265 265 267
274 274 273 272 272 272 272 269 268 268 267 267 266 265 264 264 264 266 267 267 268 269 269 271 272 273 273 272 270 270 270 270 270 270 268 267 267 265 265 265 265 265 266
275 274 272 271 271 273 273 270 270 270 269 268 268 267 266 265 265 266 267 268 269 269 270 272 272 273 273 272 272 271 271 271 271 271 270 268 266 265 265 266 266 266 265
277 274 272 270 270 272 273 272 273 272 270 269 268 269 267 265 266 266 266 268 269 269 270 270 271 272 273 272 272 272 273 273 273 272 270 267 265 264 265 266 266 265 265
278 275 272 270 271 273 273 274 274 275 272 270 269 270 269 268 267 267 267 268 270 270 270 271 271 272 274 274 274 274 274 274 273 272 270 268 265 264 265 264 264 264 264
278 276 272 271 271 273 274 275 275 275 272 271 273 273 272 271 271 270 269 270 271 271 271 272 272 273 274 275 274 273 274 274 274 273 270 268 265 264 263 263 264 264 264
278 275 273 272 273 274 274 274 275 275 274 272 272 273 272 272 273 273 273 272 272 272 273 273 273 273 273 272 272 273 275 276 275 273 270 268 265 263 262 262 262 262 262
280 277 274 272 274 275 273 272 274 274 275 274 274 273 272 274 275 275 274 273 273 274 273 272 273 272 271 271 271 272 275 276 276 275 274 270 265 263 261 260 260 259 259
281 278 275 273 274 274 272 271 273 275 276 277 278 277 275 274 273 273 274 274 273 274 274 273 272 271 270 271 273 274 274 275 277 277 275 270 266 264 261 259 257 257 256
281 278 277 275 274 273 272 272 274 275 276 278 281 280 278 276 273 273 274 275 274 272 272 272 271 271 271 272 273 274 273 274 275 275 272 268 266 265 261 259 257 256 255
283 280 278 277 277 275 274 274 275 276 277 279 281 281 279 277 277 276 275 275 273 272 272 272 272 272 273 274 274 273 273 274 274 273 269 266 264 263 260 257 256 255 253
284 282 281 280 279 275 275 275 275 276 279 279 279 279 279 278 278 277 276 275 272 272 273 273 273 275 276 278 277 275 274 274 273 272 269 266 263 261 258 256 254 252 250
284 283 282 282 281 277 275 275 275 275 276 277 277 278 278 277 277 276 277 277 275 274 274 274 275 277 277 277 276 274 273 273 272 270 270 267 263 260 256 253 252 251 250
284 283 283 284 284 280 276 276 274 272 273 274 276 276 276 278 277 276 277 277 276 276 278 278 277 278 279 278 275 274 274 273 271 269 267 265 263 259 255 253 252 252 252
286 284 283 283 282 280 280 275 272 274 275 276 277 278 276 277 277 277 277 278 277 274 276 278 279 280 281 279 277 275 274 275 274 270 268 266 263 258 257 256 254 254 253
288 285 284 284 281 278 277 277 275 277 277 277 279 279 275 274 276 277 277 280 279 276 276 280 281 281 280 279 280 279 277 277 275 272 270 268 264 262 258 255 254 254 252
287 282 280 281 278 279 281 281 280 279 278 275 275 276 276 278 280 279 278 279 280 278 278 279 281 280 280 281 282 282 280 277 274 272 268 264 263 263 260 255 252 250 247
284 280 279 281 280 280 283 286 284 280 280 278 276 277 279 282 283 283 282 280 280 280 280 283 281 281 283 283 282 280 279 276 272 267 264 261 260 259 257 253 250 248 245
280 279 281 282 281 281 281 282 283 285 287 286 283 281 282 285 284 283 281 280 280 280 281 285 285 283 283 283 282 277 276 275 270 265 263 260 258 255 253 250 247 245 244
276 277 280 281 278 277 280 283 286 287 287 288 290 288 286 285 285 282 280 280 280 281 284 287 286 284 283 283 281 276 274 274 270 267 262 259 256 253 250 247 245 242 240
272 273 278 280 278 277 278 280 281 283 285 290 293 291 289 288 285 280 279 280 279 279 282 285 287 285 286 288 284 278 276 274 268 263 258 255 255 253 250 244 241 242 240
272 272 276 278 277 277 278 279 280 281 285 290 291 290 289 287 284 283 285 283 282 280 281 282 285 288 291 291 287 282 281 278 269 260 253 250 251 250 247 241 238 239 236
270 273 275 273 272 275 277 278 277 277 280 283 283 284 287 288 286 287 290 290 287 285 286 286 287 293 294 289 282 278 275 271 266 257 252 249 246 245 242 236 233 227 224
266 270 274 273 272 272 274 275 273 272 273 274 276 281 287 288 288 288 291 295 296 293 289 289 290 291 288 282 277 272 267 262 261 253 245 239 237 239 227 217 218 218 221
265 269 271 271 271 272 272 271 270 270 270 272 274 280 283 281 280 285 290 292 291 292 296 296 295 290 284 280 276 273 269 261 251 237 228 228 218 206 200 203 210 213 220
262 264 267 266 266 267 267 269 270 269 267 271 277 279 274 275 280 285 287 284 280 283 292 299 298 293 290 284 276 262 255 244 234 217 206 203 200 194 192 203 213 216 224
Height
5588 5586 5585 5584 5583 5582 5581 5581 5580 5579 5579 5579 5579 5580 5581 5581 5582 5583 5584 5584 5585 5585 5585 5585 5585 5585 5585 5585 5586 5586 5586 5586 5588 5591 5591 5592 5592 5593 5594 5595 5597 5599 5600
5578 5577 5576 5575 5574 5573 5571 5571 5570 5570 5570 5569 5570 5571 5571 5572 5572 5573 5573 5574 5574 5575 5574 5574 5574 5574 5574 5574 5574 5574 5575 5575 5575 5577 5578 5578 5579 5580 5581 5583 5584 5586 5588
5569 5568 5566 5565 5564 5563 5562 5562 5561 5561 5560 5560 5560 5561 5561 5561 5562 5563 5563 5564 5564 5564 5564 5564 5564 5564 5564 5564 5563 5563 5564 5563 5563 5564 5566 5566 5567 5568 5569 5570 5572 5573 5575
5560 5558 5557 5556 5556 5555 5554 5553 5552 5552 5551 5552 5552 5551 5551 5551 5551 5552 5553 5553 5554 5554 5554 5554 5554 5554 5553 5553 5553 5553 5552 5552 5552 5552 5553 5554 5555 5556 5557 5559 5560 5561 5563
5551 5549 5548 5547 5547 5546 5545 5544 5544 5543 5543 5542 5542 5542 5542 5542 5542 5542 5543 5544 5544 5544 5544 5543 5543 5543 5543 5542 5542 5542 5541 5541 5541 5541 5542 5543 5544 5545 5546 5547 5548 5550 5552
5541 5540 5539 5539 5538 5538 5537 5537 5536 5536 5535 5534 5534 5533 5533 5533 5533 5533 5533 5534 5534 5534 5534 5534 5534 5533 5533 5532 5532 5532 5531 5531 5531 5531 5531 5532 5533 5534 5535 5535 5537 5540 5542
5533 5532 5531 5531 5530 5530 5529 5529 5529 5528 5527 5527 5527 5526 5526 5526 5525 5525 5524 5524 5525 5525 5525 5525 5525 5524 5524 5523 5523 5523 5522 5521 5521 5521 5520 5521 5521 5522 5524 5526 5527 5528 5531
5525 5524 5523 5523 5522 5522 5522 5521 5521 5521 5521 5520 5519 5519 5519 5518 5517 5517 5516 5516 5516 5516 5516 5516 5516 5515 5515 5515 5515 5514 5513 5512 5512 5511 5511 5511 5510 5511 5513 5515 5517 5519 5522
5517 5517 5516 5515 5514 5514 5514 5514 5514 5513 5513 5512 5511 5511 5511 5510 5509 5509 5508 5508 5508 5508 5507 5507 5507 5507 5507 5507 5506 5506 5505 5504 5503 5502 5502 5502 5502 5503 5504 5506 5508 5511 5513
5510 5509 5508 5507 5506 5506 5506 5506 5506 5505 5505 5505 5504 5503 5502 5502 5501 5501 5500 5500 5500 5500 5500 5499 5499 5499 5499 5498 5498 5498 5497 5496 5495 5495 5494 5494 5494 5495 5496 5498 5500 5503 5505
5502 5501 5500 5499 5498 5498 5498 5498 5498 5497 5497 5497 5497 5495 5494 5493 5493 5492 5492 5492 5492 5492 5492 5492 5491 5491 5490 5490 5489 5489 5489 5488 5488 5487 5487 5487 5487 5488 5489 5491 5493 5495 5498
5495 5494 5493 5492 5491 5490 5491 5490 5490 5490 5490 5489 5489 5488 5487 5486 5486 5485 5484 5484 5484 5484 5485 5484 5484 5483 5483 5482 5482 5481 5481 5481 5481 5481 5481 5480 5481 5481 5483 5485 5487 5489 5491
5488 5487 5486 5484 5484 5483 5483 5483 5482 5482 5482 5482 5482 5481 5481 5480 5479 5478 5478 5477 5477 5477 5477 5477 5476 5476 5475 5475 5474 5474 5474 5474 5474 5474 5474 5474 5475 5475 5477 5478 5480 5482 5484
5482 5480 5479 5478 5477 5476 5476 5476 5476 5475 5475 5475 5475 5475 5474 5473 5473 5472 5471 5471 5471 5470 5470 5470 5469 5468 5468 5468 5468 5467 5467 5467 5467 5467 5467 5468 5468 5469 5470 5472 5474 5475 5477
5475 5474 5472 5471 5471 5470 5470 5469 5470 5470 5469 5470 5469 5469 5468 5468 5467 5466 5466 5466 5465 5465 5464 5464 5463 5463 5462 5461 5461 5461 5461 5460 5460 5461 5461 5462 5462 5463 5464 5466 5467 5469 5471
5469 5468 5467 5466 5466 5466 5465 5465 5464 5464 5464 5464 5464 5464 5463 5463 5462 5461 5461 5460 5459 5459 5459 5458 5458 5457 5456 5455 5455 5455 5454 5454 5455 5455 5456 5456 5457 5458 5459 5460 5462 5464 5465
5463 5463 5463 5462 5462 5462 5462 5461 5461 5460 5459 5459 5459 5459 5458 5458 5457 5456 5456 5455 5454 5454 5454 5453 5453 5452 5451 5450 5450 5450 5450 5449 5449 5450 5451 5451 5452 5453 5454 5455 5457 5459 5461
5459 5459 5459 5459 5458 5458 5458 5457 5457 5456 5456 5455 5455 5454 5454 5453 5453 5452 5451 5451 5450 5449 5449 5449 5448 5448 5447 5446 5446 5445 5445 5445 5446 5446 5446 5447 5448 5449 5450 5451 5453 5454 5456
5456 5456 5456 5455 5455 5455 5455 5454 5453 5453 5452 5451 5451 5450 5450 5449 5448 5448 5448 5447 5447 5446 5446 5445 5444 5444 5443 5443 5442 5442 5442 5442 5443 5443 5443 5444 5445 5446 5447 5448 5449 5451 5453
5452 5452 5452 5452 5452 5451 5451 5450 5450 5449 5449 5448 5447 5447 5446 5445 5445 5445 5444 5444 5443 5443 5442 5442 5441 5441 5440 5439 5439 5439 5440 5440 5440 5441 5441 5442 5442 5443 5444 5445 5446 5448 5450
5449 5449 5449 5448 5448 5448 5447 5447 5446 5446 5446 5445 5444 5443 5443 5443 5442 5442 5441 5441 5440 5440 5439 5439 5438 5438 5438 5437 5437 5437 5438 5438 5438 5439 5439 5440 5441 5442 5443 5443 5444 5446 5448
5445 5445 5445 5445 5445 5444 5444 5444 5443 5443 5443 5442 5441 5441 5440 5440 5439 5439 5438 5438 5437 5437 5437 5437 5436 5436 5436 5436 5436 5436 5436 5437 5437 5437 5438 5438 5439 5440 5441 5442 5443 5445 5446
5441 5441 5441 5441 5441 5441 5441 5441 5440 5440 5440 5439 5439 5439 5438 5437 5437 5437 5436 5436 5435 5435 5435 5435 5435 5434 5434 5434 5434 5435 5435 5435 5435 5436 5436 5437 5438 5439 5439 5440 5442 5444 5445
5438 5438 5438 5438 5438 5438 5438 5438 5438 5438 5437 5437 5437 5436 5436 5436 5435 5435 5435 5434 5434 5433 5434 5434 5434 5433 5433 5433 5433 5433 5433 5434 5434 5434 5435 5436 5437 5438 5438 5440 5441 5442 5444
5435 5435 5435 5435 5435 5435 5435 5435 5435 5435 5435 5435 5435 5434 5434 5434 5434 5434 5433 5433 5433 5433 5433 5433 5432 5432 5432 5432 5432 5432 5432 5432 5433 5434 5434 5435 5436 5437 5438 5439 5441 5442 5443
5431 5432 5432 5432 5433 5433 5433 5433 5433 5433 5433 5433 5433 5432 5432 5432 5432 5432 5432 5432 5432 5432 5432 5431 5431 5431 5431 5431 5431 5431 5431 5432 5432 5433 5434 5435 5436 5437 5438 5439 5440 5441 5442